Regional Weather Roundup
Issued by NWS Kansas City/Pleasant Hill, MO

Home | Current Version | Previous Version | Text Only | Print | Product List | Glossary On
Versions: 1 2 3 4 5 6 7 8 9 10 11 12 13 14 15 16 17 18 19 20 21 22 23 24 25 26 27 28 29 30 31 32 33 34 35 36 37 38 39 40 41 42 43 44 45 46 47 48 49 50
000
ASUS43 KEAX 221411
RWREAX

WEATHER ROUNDUP FOR EASTERN KANSAS AND NORTHWEST MISSOURI
NATIONAL WEATHER SERVICE KANSAS CITY/PLEASANT HILL MO
900 AM CDT MON SEP 22 2014

KSZ040-057-103>105-MOZ028-029-037-043-221500-
...KANSAS CITY METROPOLITAN AREA...

CITY           SKY/WX    TMP DP  RH WIND       PRES   REMARKS
K.C. INTL      SUNNY     57  51  80 N3        30.32S
K.C. DOWNTOWN  SUNNY     58  52  80 CALM      30.33R
LEES SUMMIT    SUNNY     58  52  80 CALM      30.33R
OLATHE - IXD   SUNNY     57  53  86 N3        30.33R
OLATHE - OJC   SUNNY     59  51  75 NE5       30.32R
LAWRENCE       SUNNY     55  51  86 CALM      30.33R

$$

MOZ001>008-011>017-020>025-030>033-038>040-044>046-053-054-221500-
...NORTHERN AND CENTRAL MISSOURI...

CITY           SKY/WX    TMP DP  RH WIND       PRES   REMARKS
ST. JOSEPH     SUNNY     52  51  97 CALM      30.33S
MOSBY          SUNNY     54  52  94 CALM      30.33R
WHITEMAN AFB   SUNNY     57  52  82 E2        30.32R
CLINTON        SUNNY     57  54  88 CALM      30.32R
SEDALIA        SUNNY     58  51  78 NE5       30.32S
WARSAW         NOT AVBL
MARSHALL       SUNNY     61  54  77 E6        30.33R
CHILLICOTHE      N/A     58  52  80 CALM      30.34R
MOBERLY        SUNNY     57  52  82 CALM      30.33R
KIRKSVILLE     SUNNY     56  51  84 N6        30.33R

$$

MOZ041-047>049-056>058-063>065-088>090-097-221500-
...EASTERN AND SOUTHERN MISSOURI...

CITY           SKY/WX    TMP DP  RH WIND       PRES   REMARKS
ST. LOUIS INTL SUNNY     59  51  75 NE3       30.29R
SPIRIT OF STL  SUNNY     58  51  78 NE5       30.29R
COLUMBIA       SUNNY     57  52  83 N5        30.32R
JEFFERSON CITY SUNNY     54  52  93 NW3       30.32R
MEXICO         SUNNY    N/A N/A N/A N5        30.31R
HANNIBAL       SUNNY     59  52  77 CALM      30.33R
ROLLA          SUNNY     57  51  80 N7        30.29R
LEBANON        SUNNY     59  52  77 N8        30.32R
OSAGE BEACH    SUNNY     57  50  77 NE8       30.31R
SPRINGFIELD    SUNNY     59  51  75 NE7       30.31R
BRANSON        SUNNY     59  55  88 N5        30.31R
NEVADA         SUNNY     59  54  82 NE3       30.34R
JOPLIN         SUNNY     58  52  80 E3        30.33R
WEST PLAINS    SUNNY     60  50  69 NE8       30.30R

$$

IAZ060-094-KSZ022-034>040-054-083-096-NEZ052-066-093-221500-
...KANSAS...SOUTHEAST NEBRASKA AND IOWA...

CITY           SKY/WX    TMP DP  RH WIND       PRES   REMARKS
TOPEKA         SUNNY     57  52  83 CALM      30.33S
MANHATTAN      SUNNY     54  49  83 CALM      30.33R
EMPORIA        SUNNY     57  51  80 E5        30.32S
CHANUTE        SUNNY     60  52  74 NE3       30.32S
WICHITA        MOSUNNY   63  48  58 SE5       30.32S
OMAHA          MOSUNNY   55  52  89 CALM      30.32S
LINCOLN        SUNNY     52  48  86 CALM      30.33R
FALLS CITY     SUNNY     54  51  90 CALM      30.32S
LAMONI         SUNNY     55  50  83 N5        30.33R
DES MOINES     SUNNY     55  49  80 CALM      30.32R

$$



USA.gov is the U.S. government's official web portal to all federal, state and local government web resources and services.